• In Österreich
  • Länderverzeichnis
  • Für 7 Tage
  • Wassertemperatur
  • Satellitenkarten
  • Wetterkarte
  • News
  • Widgets
  • user-avatar
    Anmelden

    Stündliche Wetter Zhejiang

    Heute, 17 August, Freitag

    Zeit Temperatur Niederschläge Wind Luftdruck Luftfeuchtigkeit
    00:00 +28°C° 1,6 mm 5 m/S 745 mmHg 93%
    01:00 +28°C° 1,6 mm 5 m/S 744 mmHg 93%
    02:00 +28°C° 0 mm 6 m/S 744 mmHg 92%
    03:00 +28°C° 3,2 mm 6 m/S 743 mmHg 92%
    04:00 +28°C° 3,2 mm 7 m/S 743 mmHg 92%
    05:00 +28°C° 3,2 mm 7 m/S 742 mmHg 93%
    06:00 +28°C° 2,9 mm 7 m/S 741 mmHg 92%
    07:00 +28°C° 2,9 mm 7 m/S 741 mmHg 91%
    08:00 +28°C° 0 mm 5 m/S 742 mmHg 91%
    09:00 +28°C° 0,4 mm 5 m/S 742 mmHg 89%
    10:00 +29°C° 0,4 mm 5 m/S 742 mmHg 87%
    11:00 +29°C° 0,4 mm 5 m/S 743 mmHg 85%
    12:00 +30°C° 0,7 mm 5 m/S 743 mmHg 83%
    13:00 +32°C° 0,7 mm 5 m/S 743 mmHg 81%
    14:00 +33°C° 0 mm 5 m/S 743 mmHg 76%
    15:00 +33°C° 1 mm 4 m/S 744 mmHg 78%
    16:00 +32°C° 1 mm 4 m/S 744 mmHg 80%
    17:00 +32°C° 1 mm 4 m/S 745 mmHg 82%
    18:00 +30°C° 0,5 mm 4 m/S 745 mmHg 84%
    19:00 +30°C° 0,5 mm 4 m/S 746 mmHg 85%
    20:00 +29°C° 0,5 mm 3 m/S 747 mmHg 87%
    21:00 +29°C° 0 mm 3 m/S 747 mmHg 88%
    22:00 +29°C° 0 mm 3 m/S 748 mmHg 89%
    23:00 +29°C° 0 mm 3 m/S 749 mmHg 89%

    Morgen, 18 August, Samstag

    Zeit Temperatur Niederschläge Wind Luftdruck Luftfeuchtigkeit
    00:00 +28°C° 0 mm 3 m/S 749 mmHg 90%
    01:00 +28°C° 0 mm 3 m/S 749 mmHg 90%
    02:00 +28°C° 0 mm 3 m/S 749 mmHg 90%
    03:00 +28°C° 0 mm 3 m/S 749 mmHg 90%
    04:00 +28°C° 0 mm 2 m/S 749 mmHg 91%
    05:00 +28°C° 0 mm 2 m/S 749 mmHg 91%
    06:00 +29°C° 0 mm 2 m/S 749 mmHg 87%
    07:00 +30°C° 0 mm 3 m/S 750 mmHg 83%
    08:00 +31°C° 0 mm 3 m/S 750 mmHg 80%
    09:00 +33°C° 0 mm 3 m/S 750 mmHg 73%
    10:00 +35°C° 0 mm 3 m/S 750 mmHg 67%
    11:00 +36°C° 0 mm 4 m/S 750 mmHg 61%
    12:00 +37°C° 0,4 mm 4 m/S 750 mmHg 61%
    13:00 +37°C° 0,4 mm 4 m/S 749 mmHg 61%
    14:00 +37°C° 0,4 mm 4 m/S 749 mmHg 62%
    15:00 +36°C° 0,7 mm 4 m/S 749 mmHg 65%
    16:00 +35°C° 0,7 mm 4 m/S 749 mmHg 69%
    17:00 +34°C° 0,7 mm 4 m/S 749 mmHg 72%
    18:00 +33°C° 0,1 mm 4 m/S 749 mmHg 75%
    19:00 +32°C° 0,1 mm 4 m/S 749 mmHg 77%
    20:00 +30°C° 0,1 mm 4 m/S 750 mmHg 80%
    21:00 +30°C° 0 mm 4 m/S 750 mmHg 81%
    22:00 +29°C° 0 mm 3 m/S 751 mmHg 82%
    23:00 +29°C° 0 mm 3 m/S 751 mmHg 83%

    übermorgen, 19 August, Sonntag

    Zeit Temperatur Niederschläge Wind Luftdruck Luftfeuchtigkeit
    00:00 +29°C° 0 mm 3 m/S 751 mmHg 84%
    01:00 +28°C° 0 mm 3 m/S 751 mmHg 85%
    02:00 +28°C° 0 mm 3 m/S 750 mmHg 85%
    03:00 +28°C° 0 mm 2 m/S 750 mmHg 86%
    04:00 +28°C° 0 mm 2 m/S 750 mmHg 87%
    05:00 +28°C° 0 mm 2 m/S 750 mmHg 87%
    06:00 +29°C° 0 mm 2 m/S 751 mmHg 84%
    07:00 +30°C° 0 mm 2 m/S 751 mmHg 81%
    08:00 +31°C° 0 mm 3 m/S 752 mmHg 78%
    09:00 +33°C° 0 mm 3 m/S 752 mmHg 72%
    10:00 +35°C° 0 mm 3 m/S 752 mmHg 65%
    11:00 +37°C° 0 mm 3 m/S 752 mmHg 59%
    12:00 +37°C° 0,3 mm 4 m/S 751 mmHg 57%
    13:00 +38°C° 0,3 mm 4 m/S 751 mmHg 56%
    14:00 +38°C° 0,3 mm 4 m/S 750 mmHg 54%
    15:00 +37°C° 0,2 mm 4 m/S 750 mmHg 58%
    16:00 +36°C° 0,2 mm 4 m/S 750 mmHg 62%
    17:00 +35°C° 0,2 mm 4 m/S 750 mmHg 66%
    18:00 +34°C° 0 mm 3 m/S 750 mmHg 70%
    19:00 +33°C° 0 mm 3 m/S 750 mmHg 73%
    20:00 +31°C° 0 mm 3 m/S 751 mmHg 76%
    21:00 +30°C° 0 mm 3 m/S 751 mmHg 78%
    22:00 +30°C° 0 mm 3 m/S 751 mmHg 79%
    23:00 +29°C° 0 mm 3 m/S 751 mmHg 81%

    20 August, Montag

    Zeit Temperatur Niederschläge Wind Luftdruck Luftfeuchtigkeit
    00:00 +29°C° 0 mm 2 m/S 751 mmHg 82%
    01:00 +29°C° 0 mm 2 m/S 751 mmHg 83%
    02:00 +28°C° 0 mm 2 m/S 751 mmHg 85%
    03:00 +28°C° 0 mm 2 m/S 751 mmHg 86%
    04:00 +28°C° 0 mm 2 m/S 750 mmHg 87%
    05:00 +28°C° 0 mm 2 m/S 750 mmHg 88%
    06:00 +29°C° 0 mm 2 m/S 750 mmHg 84%
    07:00 +30°C° 0 mm 2 m/S 751 mmHg 80%
    08:00 +31°C° 0 mm 2 m/S 751 mmHg 77%
    09:00 +32°C° 0,2 mm 2 m/S 751 mmHg 71%
    10:00 +35°C° 0,2 mm 2 m/S 750 mmHg 65%
    11:00 +37°C° 0,2 mm 2 m/S 750 mmHg 59%
    12:00 +38°C° 0,8 mm 2 m/S 750 mmHg 58%
    13:00 +37°C° 0,8 mm 1 m/S 749 mmHg 56%
    14:00 +39°C° 0,8 mm 1 m/S 748 mmHg 55%
    15:00 +37°C° 0,3 mm 1 m/S 748 mmHg 58%
    16:00 +36°C° 0,3 mm 1 m/S 748 mmHg 61%
    17:00 +36°C° 0,3 mm 1 m/S 748 mmHg 64%
    18:00 +34°C° 0,2 mm 1 m/S 748 mmHg 68%
    19:00 +33°C° 0,2 mm 1 m/S 748 mmHg 71%
    20:00 +32°C° 0,2 mm 1 m/S 749 mmHg 75%
    21:00 +31°C° 0 mm 1 m/S 749 mmHg 77%
    22:00 +31°C° 0 mm 1 m/S 749 mmHg 78%
    23:00 +30°C° 0 mm 1 m/S 749 mmHg 80%

    21 August, Dienstag

    Zeit Temperatur Niederschläge Wind Luftdruck Luftfeuchtigkeit
    00:00 +30°C° 0,7 mm 1 m/S 749 mmHg 82%
    01:00 +30°C° 0,7 mm 1 m/S 749 mmHg 84%
    02:00 +29°C° 0,7 mm 1 m/S 748 mmHg 87%
    03:00 +29°C° 0,6 mm 1 m/S 748 mmHg 88%
    04:00 +29°C° 0,6 mm 1 m/S 748 mmHg 89%
    05:00 +28°C° 0,6 mm 1 m/S 748 mmHg 90%
    06:00 +30°C° 0,4 mm 1 m/S 748 mmHg 86%
    07:00 +31°C° 0,4 mm 1 m/S 748 mmHg 83%
    08:00 +32°C° 0,4 mm 1 m/S 749 mmHg 79%
    09:00 +33°C° 1,5 mm 1 m/S 748 mmHg 75%
    10:00 +34°C° 1,5 mm 1 m/S 748 mmHg 72%
    11:00 +35°C° 1,5 mm 1 m/S 748 mmHg 68%
    12:00 +36°C° 1,5 mm 2 m/S 747 mmHg 68%
    13:00 +36°C° 1,5 mm 2 m/S 747 mmHg 68%
    14:00 +36°C° 1,5 mm 3 m/S 746 mmHg 68%
    15:00 +35°C° 0,7 mm 2 m/S 746 mmHg 70%
    16:00 +35°C° 0,7 mm 2 m/S 746 mmHg 72%
    17:00 +35°C° 0,7 mm 2 m/S 746 mmHg 75%
    18:00 +32°C° 0,7 mm 1 m/S 746 mmHg 78%
    19:00 +31°C° 0,7 mm 1 m/S 747 mmHg 82%
    20:00 +30°C° 0,7 mm 1 m/S 747 mmHg 85%
    21:00 +30°C° 0,7 mm 1 m/S 747 mmHg 86%
    22:00 +30°C° 0,7 mm 1 m/S 747 mmHg 87%
    23:00 +29°C° 0,7 mm 1 m/S 748 mmHg 88%

    22 August, Mittwoch

    Zeit Temperatur Niederschläge Wind Luftdruck Luftfeuchtigkeit
    00:00 +29°C° 0 mm 1 m/S 747 mmHg 88%
    01:00 +29°C° 0 mm 1 m/S 747 mmHg 89%
    02:00 +29°C° 0 mm 1 m/S 747 mmHg 89%
    03:00 +28°C° 0 mm 1 m/S 747 mmHg 90%
    04:00 +28°C° 0 mm 1 m/S 747 mmHg 91%
    05:00 +28°C° 0 mm 1 m/S 747 mmHg 91%
    06:00 +29°C° 0 mm 1 m/S 747 mmHg 88%
    07:00 +30°C° 0 mm 2 m/S 748 mmHg 85%
    08:00 +31°C° 0 mm 2 m/S 748 mmHg 82%
    09:00 +32°C° 0,5 mm 2 m/S 748 mmHg 78%
    10:00 +34°C° 0,5 mm 3 m/S 748 mmHg 73%
    11:00 +35°C° 0,5 mm 3 m/S 748 mmHg 68%
    12:00 +35°C° 0,9 mm 3 m/S 748 mmHg 67%
    13:00 +36°C° 0,9 mm 3 m/S 747 mmHg 65%
    14:00 +36°C° 0,9 mm 3 m/S 747 mmHg 64%
    15:00 +35°C° 0,4 mm 3 m/S 747 mmHg 66%
    16:00 +35°C° 0,4 mm 3 m/S 747 mmHg 69%
    17:00 +34°C° 0,4 mm 3 m/S 748 mmHg 71%
    18:00 +32°C° 0,3 mm 2 m/S 748 mmHg 75%
    19:00 +31°C° 0,3 mm 2 m/S 749 mmHg 78%
    20:00 +30°C° 0,3 mm 2 m/S 749 mmHg 82%
    21:00 +29°C° 0 mm 2 m/S 749 mmHg 83%
    22:00 +29°C° 0 mm 1 m/S 750 mmHg 85%
    23:00 +28°C° 0 mm 1 m/S 750 mmHg 86%
    Mehr zeigen